Location: Unspecified
(0.0000°N, 0.0000°E)
Time: 00:19:13
(UTC+00:00)

Transit 4A - Pass Details

Date: 14 December 2018
Orbit: 863 x 982 km, 66.8° (Epoch: 18 April)

Event Time Altitude Azimuth Distance (km) Brightness Sun altitude
Rises 03:32:51 0° 242° (WSW) 3,474 - -32.2°
Maximum altitude 03:38:54 10° 290° (WNW) 2,507 - -30.8°
Drops below altitude 10° 03:39:06 10° 292° (WNW) 2,507 - -30.8°
Sets 03:44:55 0° 339° (NNW) 3,425 - -29.5°
